Location: Austin
(30.3000°N, 97.7500°W)
Time: 07:34:04
(UTC-05:00)

Atlas Centaur 2 - Pass Details

Date: 16 June 2025
Orbit: 456 x 1256 km, 30.4° (Epoch: 07 July)

Event Time Altitude Azimuth Distance (km) Brightness Sun altitude
Exits shadow 04:40:07 26° 255° (WSW) 2,226 3.9 -19.9°
Maximum altitude 04:45:16 83° 170° (S) 1,264 3.0 -19.1°
Drops below altitude 10° 04:53:25 10° 84° (E) 3,161 6.0 -17.8°
Sets 04:56:12 0° 83° (E) 4,067 6.7 -17.3°
